Location: Bremen
(53.0793°N, 8.8017°E)
Time: 16:15:15
(UTC+01:00)

ISS - Pass Details

Date: 15 November 2025
Orbit: 416 x 420 km, 51.6° (Epoch: 12 December)

Event Time Altitude Azimuth Distance (km) Brightness Sun altitude
Rises 19:43:17 0° 245° (WSW) 2,364 0.9 -28.9°
Reaches altitude 10° 19:45:25 10° 240° (WSW) 1,500 -0.4 -29.2°
Enters shadow 19:45:43 12° 239° (WSW) 1,381 -0.6 -29.2°
